Flag for U.S.A. Weather past 2 weeks in Missoula, Montana, U.S.A.

Now
30 °F

Ice fog.


Feels Like: 25 °F
Forecast: 26 / 37 °F
Wind: 5 mph from Southeast

Location: Missoula International Airport

Current Time: Dec 19, 2014 at 11:45:35 PM

Latest Report: Dec 19, 2014 at 10:53 PM


Visibility: 0 mi

Pressure: 30.09 "Hg

Humidity: 100%

Dew point: 30 °F

Location of MissoulaLocation

Historic Weather in Missoula — Graph

°F

Missoula temperature yesterday

Maximum temperature yesterday: 33 °F (at 12:53 PM)
Minimum temperature yesterday: 28 °F (at 12:53 AM)
Average temperature yesterday: 30 °F

Past Weeks' High & Low Weather Summary

 TemperatureHumidityPressure
High42 °F (Dec 10, 10:01 PM)100% (Dec 5, 8:53 PM)30.47 "Hg (Dec 5, 8:53 PM)
Low23 °F (Dec 16, 4:53 AM)58% (Dec 15, 2:53 PM)29.67 "Hg (Dec 11, 1:53 PM)
Average31 °F87%30.13 "Hg
* Reported Dec 4 10:53 PM — Dec 19 10:53 PM, Missoula, Weather by CustomWeather, © 2014

Note: Actual official high and low records may vary slightly from our data, if they occured in-between our weather recording intervals... More about our weather records

Advertising

Missoula weather history for previous 24 hours

 ConditionsComfort  
Time TempWeatherWind HumidityBarometerVisibility
10:53 PM
Dec 19
30 °FIce fog.5 mph100%30.09 "Hg0 mi
9:53 PM31 °FIce fog.3 mph96%30.09 "Hg0 mi
8:53 PM31 °FIce fog.No wind100%30.08 "Hg0 mi
7:59 PM31 °FIce fog.No wind100%29.98 "Hg1 mi
6:53 PM32 °FIce fog.No wind100%30.06 "Hg2 mi
5:53 PM32 °FIce fog.No wind96%30.05 "Hg5 mi
4:53 PM32 °FLight snow. Ice fog.6 mph96%30.03 "Hg3 mi
3:53 PM32 °FLight snow. Ice fog.3 mph96%30.01 "Hg2 mi
2:53 PM32 °FLight snow. Ice fog.3 mph96%30.00 "Hg4 mi
1:53 PM33 °FLight rain. Overcast.3 mph85%30.00 "Hg8 mi
12:53 PM33 °FMostly cloudy.6 mph85%30.01 "Hg10 mi
11:53 AM33 °FOvercast.No wind85%30.01 "Hg10 mi
10:53 AM33 °FOvercast.No wind85%30.03 "Hg10 mi
10:32 AM32 °FOvercast.3 mph87%29.95 "Hg10 mi
9:53 AM31 °FOvercast.No wind89%30.04 "Hg9 mi
8:53 AM29 °FIce fog.No wind96%30.04 "Hg6 mi
7:53 AM30 °FOvercast.No wind92%30.04 "Hg8 mi
6:53 AM29 °FOvercast.No wind96%30.06 "Hg7 mi
5:53 AM30 °FOvercast.No wind96%30.06 "Hg9 mi
4:53 AM30 °FOvercast.3 mph96%30.07 "Hg10 mi
3:53 AM29 °FOvercast.No wind96%30.08 "Hg8 mi
2:53 AM30 °FOvercast.No wind92%30.09 "Hg10 mi
1:53 AM30 °FPassing clouds.No wind92%30.09 "Hg10 mi
12:53 AM30 °FOvercast.3 mph92%30.09 "Hg8 mi
11:53 PM
Dec 18
30 °FOvercast.3 mph92%30.10 "Hg9 mi
Weather by CustomWeather, © 2014

See weather overviewHow to use our weather pages